DLH5P LKPR-EDDF

Flight info

Callsign DLH5P
Flight time 0h 46m
Altitude 24000
Route BALTU DCT DONAD DCT RAPET T170 GAPLA T178 KERAX KERAX5D
Aircraft A320/M-SDE2E3FGIJ1LORWXYZ/HB1

Departure

Time 2026-04-15 12:55
Airport Václav Havel Airport Prague (LKPR)

Arrival

Time 2026-04-15 13:41
Airport Frankfurt Main Airport (EDDF)
Time Latitude Longitude Altitude Speed Heading
2026-04-15 12:26 50.10681 14.26433 1174 ft 0 kts 214°
2026-04-15 12:36 50.10682 14.26433 1174 ft 0 kts 214°
2026-04-15 12:42 50.10686 14.26438 1174 ft 2 kts 214°
2026-04-15 12:42 50.10700 14.26453 1170 ft 2 kts 214°
2026-04-15 12:43 50.10713 14.26467 1171 ft 2 kts 222°
2026-04-15 12:43 50.10722 14.26483 1169 ft 2 kts 252°
2026-04-15 12:43 50.10724 14.26501 1170 ft 2 kts 271°
2026-04-15 12:43 50.10724 14.26520 1169 ft 2 kts 294°
2026-04-15 12:44 50.10720 14.26535 1172 ft 0 kts 304°
2026-04-15 12:46 50.10730 14.26510 1170 ft 6 kts 304°
2026-04-15 12:46 50.10752 14.26461 1171 ft 5 kts 304°
2026-04-15 12:46 50.10768 14.26424 1170 ft 4 kts 304°
2026-04-15 12:47 50.10780 14.26398 1172 ft 2 kts 304°
2026-04-15 12:47 50.10788 14.26381 1170 ft 1 kts 304°
2026-04-15 12:47 50.10798 14.26358 1171 ft 7 kts 304°
2026-04-15 12:47 50.10808 14.26273 1170 ft 8 kts 245°
2026-04-15 12:48 50.10767 14.26216 1172 ft 10 kts 214°
2026-04-15 12:48 50.10709 14.26157 1170 ft 1 kts 213°
2026-04-15 12:48 50.10664 14.26108 1170 ft 12 kts 215°
2026-04-15 12:48 50.10599 14.26043 1169 ft 10 kts 211°
2026-04-15 12:49 50.10542 14.25986 1173 ft 10 kts 208°
2026-04-15 12:49 50.10480 14.26021 1176 ft 11 kts 135°
2026-04-15 12:49 50.10425 14.26131 1172 ft 14 kts 127°
2026-04-15 12:49 50.10370 14.26244 1174 ft 12 kts 127°
2026-04-15 12:50 50.10323 14.26341 1175 ft 12 kts 126°
2026-04-15 12:50 50.10259 14.26474 1172 ft 18 kts 126°
2026-04-15 12:50 50.10180 14.26638 1176 ft 19 kts 127°
2026-04-15 12:50 50.10101 14.26800 1185 ft 18 kts 128°
2026-04-15 12:51 50.10030 14.26947 1194 ft 16 kts 126°
2026-04-15 12:51 50.09962 14.27086 1199 ft 18 kts 127°
2026-04-15 12:51 50.09886 14.27245 1202 ft 18 kts 128°
2026-04-15 12:51 50.09799 14.27394 1204 ft 18 kts 135°
2026-04-15 12:52 50.09708 14.27533 1206 ft 18 kts 135°
2026-04-15 12:52 50.09620 14.27646 1210 ft 14 kts 168°
2026-04-15 12:52 50.09555 14.27589 1213 ft 10 kts 220°
2026-04-15 12:52 50.09497 14.27518 1212 ft 12 kts 217°
2026-04-15 12:53 50.09486 14.27506 1212 ft 0 kts 216°
2026-04-15 12:53 50.09448 14.27462 1210 ft 13 kts 216°
2026-04-15 12:54 50.09431 14.27375 1209 ft 8 kts 295°
2026-04-15 12:54 50.09491 14.27245 1206 ft 36 kts 307°
2026-04-15 12:54 50.09797 14.26612 1206 ft 107 kts 307°
2026-04-15 12:54 50.10368 14.25435 1231 ft 158 kts 308°
2026-04-15 12:55 50.11022 14.24086 1948 ft 156 kts 308°
2026-04-15 12:55 50.11685 14.22718 2608 ft 164 kts 307°
2026-04-15 12:55 50.12419 14.21194 2987 ft 185 kts 307°
2026-04-15 12:55 50.13220 14.19513 3409 ft 203 kts 307°
2026-04-15 12:56 50.14120 14.17648 3724 ft 228 kts 307°
2026-04-15 12:56 50.15123 14.15570 4199 ft 251 kts 307°
2026-04-15 12:56 50.16214 14.13300 4821 ft 267 kts 306°
2026-04-15 12:56 50.17329 14.10984 5857 ft 267 kts 306°
2026-04-15 12:57 50.18446 14.08664 6841 ft 269 kts 306°
2026-04-15 12:57 50.19574 14.06315 7745 ft 272 kts 306°
2026-04-15 12:57 50.20714 14.03938 8652 ft 275 kts 306°
2026-04-15 12:57 50.21730 14.01444 9529 ft 278 kts 293°
2026-04-15 12:58 50.22276 13.98501 10394 ft 281 kts 276°
2026-04-15 12:58 50.22250 13.95377 10829 ft 300 kts 260°
2026-04-15 12:58 50.21644 13.92125 11086 ft 324 kts 252°
2026-04-15 12:58 50.20907 13.88671 11293 ft 347 kts 252°
2026-04-15 12:59 50.19285 13.81095 11798 ft 382 kts 252°
2026-04-15 12:59 50.18440 13.77134 12427 ft 387 kts 252°
2026-04-15 12:59 50.17587 13.73122 13077 ft 391 kts 252°
2026-04-15 13:00 50.16730 13.69073 13719 ft 395 kts 252°
2026-04-15 13:00 50.15868 13.64984 14307 ft 399 kts 252°
2026-04-15 13:00 50.14996 13.60859 14850 ft 403 kts 252°
2026-04-15 13:00 50.14110 13.56694 15384 ft 407 kts 252°
2026-04-15 13:01 50.13212 13.52494 15908 ft 410 kts 252°
2026-04-15 13:01 50.12303 13.48259 16434 ft 414 kts 252°
2026-04-15 13:01 50.11697 13.45434 16779 ft 416 kts 252°
2026-04-15 13:01 50.10776 13.41144 17293 ft 420 kts 252°
2026-04-15 13:02 50.09847 13.36811 17791 ft 423 kts 252°
2026-04-15 13:02 50.09108 13.32360 18277 ft 426 kts 261°
2026-04-15 13:02 50.08825 13.27749 18731 ft 430 kts 268°
2026-04-15 13:02 50.08711 13.23084 19158 ft 433 kts 268°
2026-04-15 13:03 50.08595 13.18392 19580 ft 436 kts 268°
2026-04-15 13:03 50.08472 13.13660 19981 ft 438 kts 268°
2026-04-15 13:03 50.08342 13.08909 20401 ft 441 kts 268°
2026-04-15 13:03 50.08214 13.04120 20800 ft 444 kts 269°
2026-04-15 13:04 50.08371 12.99325 21176 ft 445 kts 278°
2026-04-15 13:04 50.08997 12.94598 21570 ft 447 kts 285°
2026-04-15 13:04 50.09792 12.89910 21959 ft 449 kts 285°
2026-04-15 13:04 50.10585 12.85199 22354 ft 451 kts 285°
2026-04-15 13:05 50.11381 12.80458 22741 ft 453 kts 285°
2026-04-15 13:05 50.12176 12.75696 23118 ft 455 kts 285°
2026-04-15 13:05 50.12972 12.70917 23485 ft 457 kts 285°
2026-04-15 13:05 50.13768 12.66121 23829 ft 458 kts 285°
2026-04-15 13:06 50.14565 12.61296 24113 ft 460 kts 285°
2026-04-15 13:06 50.15361 12.56456 24214 ft 463 kts 285°
2026-04-15 13:06 50.16163 12.51576 24235 ft 467 kts 285°
2026-04-15 13:06 50.16957 12.46733 24227 ft 467 kts 285°
2026-04-15 13:07 50.17756 12.41824 24232 ft 467 kts 285°
2026-04-15 13:07 50.18554 12.36901 24227 ft 467 kts 285°
2026-04-15 13:07 50.19461 12.32051 24228 ft 466 kts 291°
2026-04-15 13:07 50.20570 12.27290 24229 ft 466 kts 291°
2026-04-15 13:08 50.21671 12.22542 24236 ft 466 kts 291°
2026-04-15 13:08 50.22770 12.17778 24237 ft 466 kts 291°
2026-04-15 13:08 50.23862 12.13020 24238 ft 466 kts 290°
2026-04-15 13:08 50.24961 12.08192 24240 ft 465 kts 290°
2026-04-15 13:09 50.26043 12.03423 24236 ft 465 kts 290°
2026-04-15 13:09 50.27126 11.98666 24236 ft 465 kts 290°
2026-04-15 13:09 50.28202 11.93975 24232 ft 464 kts 290°
2026-04-15 13:09 50.29295 11.89224 24231 ft 464 kts 290°
2026-04-15 13:10 50.30401 11.84414 24229 ft 464 kts 290°
2026-04-15 13:10 50.31477 11.79725 24231 ft 464 kts 290°
2026-04-15 13:10 50.32563 11.74978 24232 ft 464 kts 290°
2026-04-15 13:10 50.33644 11.70226 24227 ft 463 kts 290°
2026-04-15 13:11 50.34718 11.65476 24223 ft 463 kts 290°
2026-04-15 13:11 50.35789 11.60717 24221 ft 463 kts 290°
2026-04-15 13:11 50.36857 11.55961 24217 ft 463 kts 290°
2026-04-15 13:11 50.37926 11.51206 24212 ft 463 kts 290°
2026-04-15 13:12 50.38994 11.46454 24211 ft 462 kts 290°
2026-04-15 13:12 50.40061 11.41704 24209 ft 462 kts 290°
2026-04-15 13:12 50.41129 11.36947 24207 ft 462 kts 290°
2026-04-15 13:12 50.42191 11.32195 24201 ft 462 kts 289°
2026-04-15 13:13 50.43249 11.27439 24203 ft 462 kts 289°
2026-04-15 13:13 50.44305 11.22683 24201 ft 462 kts 289°
2026-04-15 13:13 50.45358 11.17927 24201 ft 461 kts 289°
2026-04-15 13:13 50.46407 11.13170 24201 ft 461 kts 289°
2026-04-15 13:14 50.47455 11.08406 24199 ft 461 kts 289°
2026-04-15 13:14 50.48503 11.03646 24202 ft 461 kts 289°
2026-04-15 13:14 50.49548 10.98890 24201 ft 461 kts 289°
2026-04-15 13:14 50.50588 10.94129 24202 ft 461 kts 289°
2026-04-15 13:15 50.51624 10.89361 24197 ft 461 kts 289°
2026-04-15 13:15 50.52657 10.84594 24197 ft 461 kts 289°
2026-04-15 13:15 50.53691 10.79831 24199 ft 461 kts 289°
2026-04-15 13:15 50.54750 10.75078 24199 ft 461 kts 289°
2026-04-15 13:16 50.55830 10.70335 24197 ft 461 kts 290°
2026-04-15 13:16 50.56918 10.65598 24198 ft 461 kts 290°
2026-04-15 13:16 50.58005 10.60861 24196 ft 461 kts 289°
2026-04-15 13:16 50.59088 10.56115 24196 ft 461 kts 289°
2026-04-15 13:17 50.60165 10.51370 24195 ft 461 kts 289°
2026-04-15 13:17 50.61236 10.46620 24198 ft 460 kts 289°
2026-04-15 13:17 50.62303 10.41867 24201 ft 460 kts 289°
2026-04-15 13:17 50.63252 10.37059 24201 ft 460 kts 282°
2026-04-15 13:18 50.63690 10.32066 24198 ft 460 kts 273°
2026-04-15 13:18 50.63573 10.27028 24194 ft 461 kts 263°
2026-04-15 13:18 50.62900 10.22091 24196 ft 462 kts 253°
2026-04-15 13:18 50.61712 10.17457 24192 ft 464 kts 244°
2026-04-15 13:19 50.60155 10.12930 24195 ft 464 kts 242°
2026-04-15 13:19 50.58626 10.08530 24191 ft 464 kts 242°
2026-04-15 13:19 50.57072 10.04072 24190 ft 465 kts 242°
2026-04-15 13:19 50.55497 9.99560 24190 ft 465 kts 243°
2026-04-15 13:20 50.54126 9.95046 24188 ft 463 kts 250°
2026-04-15 13:20 50.53152 9.90233 24189 ft 463 kts 255°
2026-04-15 13:20 50.52284 9.85358 24189 ft 463 kts 255°
2026-04-15 13:20 50.51407 9.80494 24193 ft 463 kts 255°
2026-04-15 13:21 50.50524 9.75624 24189 ft 463 kts 255°
2026-04-15 13:21 50.49646 9.70764 24187 ft 463 kts 255°
2026-04-15 13:21 50.48789 9.65891 24187 ft 463 kts 256°
2026-04-15 13:21 50.47947 9.60991 23961 ft 465 kts 256°
2026-04-15 13:22 50.47110 9.56105 23452 ft 462 kts 255°
2026-04-15 13:22 50.46247 9.51274 22897 ft 458 kts 255°
2026-04-15 13:22 50.45355 9.46493 22297 ft 454 kts 254°
2026-04-15 13:22 50.44451 9.41769 21741 ft 451 kts 253°
2026-04-15 13:23 50.43541 9.37082 21307 ft 448 kts 253°
2026-04-15 13:23 50.42513 9.32485 20917 ft 446 kts 246°
2026-04-15 13:23 50.41049 9.28215 20515 ft 444 kts 238°
2026-04-15 13:23 50.39179 9.24373 20124 ft 443 kts 229°
2026-04-15 13:24 50.36953 9.21058 19732 ft 442 kts 220°
2026-04-15 13:24 50.34428 9.18327 19349 ft 440 kts 213°
2026-04-15 13:24 50.31830 9.15808 18972 ft 438 kts 214°
2026-04-15 13:24 50.29444 9.12892 18597 ft 434 kts 224°
2026-04-15 13:25 50.27438 9.09398 18181 ft 431 kts 234°
2026-04-15 13:25 50.25873 9.05436 17752 ft 427 kts 244°
2026-04-15 13:25 50.24762 9.01158 17337 ft 425 kts 250°
2026-04-15 13:25 50.23769 8.96826 16917 ft 422 kts 250°
2026-04-15 13:26 50.22770 8.92531 16513 ft 419 kts 250°
2026-04-15 13:26 50.21767 8.88272 16106 ft 417 kts 250°
2026-04-15 13:26 50.20764 8.84047 15691 ft 414 kts 250°
2026-04-15 13:26 50.19764 8.79845 15284 ft 412 kts 250°
2026-04-15 13:27 50.18770 8.75666 14910 ft 409 kts 250°
2026-04-15 13:27 50.17785 8.71517 14521 ft 407 kts 250°
2026-04-15 13:27 50.16813 8.67423 14142 ft 396 kts 250°
2026-04-15 13:27 50.15869 8.63449 13733 ft 386 kts 250°
2026-04-15 13:28 50.14947 8.59570 13314 ft 377 kts 250°
2026-04-15 13:28 50.14046 8.55789 12890 ft 368 kts 249°
2026-04-15 13:28 50.13159 8.52088 12477 ft 360 kts 249°
2026-04-15 13:28 50.12292 8.48468 12070 ft 353 kts 249°
2026-04-15 13:29 50.11443 8.44918 11695 ft 346 kts 249°
2026-04-15 13:29 50.10612 8.41445 11302 ft 339 kts 249°
2026-04-15 13:29 50.09790 8.38034 10907 ft 334 kts 249°
2026-04-15 13:29 50.08978 8.34682 10520 ft 328 kts 249°
2026-04-15 13:30 50.08174 8.31376 10134 ft 324 kts 249°
2026-04-15 13:30 50.07383 8.28118 9718 ft 320 kts 249°
2026-04-15 13:30 50.06601 8.24892 9293 ft 317 kts 249°
2026-04-15 13:30 50.05839 8.21758 8875 ft 302 kts 249°
2026-04-15 13:31 50.05110 8.18780 8469 ft 287 kts 248°
2026-04-15 13:31 50.04414 8.15942 8067 ft 275 kts 248°
2026-04-15 13:31 50.03744 8.13209 7653 ft 267 kts 248°
2026-04-15 13:31 50.03092 8.10541 7242 ft 260 kts 248°
2026-04-15 13:32 50.02466 8.07966 6822 ft 247 kts 248°
2026-04-15 13:32 50.01852 8.05518 6668 ft 241 kts 247°
2026-04-15 13:32 50.01230 8.03133 6511 ft 236 kts 243°
2026-04-15 13:32 50.00336 8.01020 6147 ft 232 kts 225°
2026-04-15 13:33 49.99026 7.99643 5884 ft 226 kts 199°
2026-04-15 13:33 49.97487 7.99339 5525 ft 226 kts 173°
2026-04-15 13:33 49.96002 8.00071 5317 ft 223 kts 152°
2026-04-15 13:33 49.94784 8.01506 5128 ft 219 kts 133°
2026-04-15 13:34 49.93951 8.03417 5045 ft 219 kts 115°
2026-04-15 13:34 49.93679 8.05737 5022 ft 222 kts 88°
2026-04-15 13:34 49.93947 8.08136 4981 ft 223 kts 81°
2026-04-15 13:34 49.94281 8.10487 4998 ft 224 kts 76°
2026-04-15 13:35 49.94777 8.12787 5000 ft 225 kts 71°
2026-04-15 13:35 49.95319 8.15000 4977 ft 218 kts 71°
2026-04-15 13:35 49.95846 8.17157 4884 ft 211 kts 71°
2026-04-15 13:35 49.96356 8.19271 4682 ft 208 kts 71°
2026-04-15 13:36 49.96880 8.21356 4432 ft 208 kts 70°
2026-04-15 13:36 49.97425 8.23466 4185 ft 213 kts 70°
2026-04-15 13:36 49.97975 8.25576 3837 ft 208 kts 69°
2026-04-15 13:36 49.98515 8.27648 3363 ft 205 kts 70°
2026-04-15 13:37 49.98987 8.29674 3067 ft 193 kts 70°
2026-04-15 13:37 49.99492 8.31507 2895 ft 176 kts 66°
2026-04-15 13:37 49.99887 8.33261 2703 ft 169 kts 74°
2026-04-15 13:37 50.00255 8.34944 2495 ft 158 kts 71°
2026-04-15 13:38 50.00627 8.36463 2373 ft 145 kts 72°
2026-04-15 13:38 50.00966 8.37915 2126 ft 142 kts 72°
2026-04-15 13:38 50.01288 8.39391 1869 ft 143 kts 75°
2026-04-15 13:38 50.01609 8.40814 1666 ft 138 kts 70°
2026-04-15 13:39 50.01936 8.42203 1432 ft 137 kts 71°
2026-04-15 13:39 50.02251 8.43609 1153 ft 138 kts 71°
2026-04-15 13:39 50.02588 8.45008 954 ft 138 kts 69°
2026-04-15 13:39 50.02927 8.46413 807 ft 140 kts 70°
2026-04-15 13:40 50.03266 8.47846 644 ft 143 kts 70°
2026-04-15 13:40 50.03611 8.49306 428 ft 145 kts 70°
2026-04-15 13:40 50.03953 8.50734 364 ft 131 kts 69°
2026-04-15 13:40 50.04247 8.51967 334 ft 98 kts 69°
2026-04-15 13:41 50.04367 8.52464 348 ft 35 kts 71°
2026-04-15 13:41 50.04395 8.52759 348 ft 21 kts 92°
2026-04-15 13:41 50.04386 8.52876 350 ft 6 kts 99°
2026-04-15 13:41 50.04375 8.52975 354 ft 9 kts 99°
2026-04-15 13:42 50.04367 8.53046 358 ft 4 kts 100°
2026-04-15 13:42 50.04364 8.53078 356 ft 6 kts 100°
2026-04-15 13:42 50.04351 8.53212 361 ft 11 kts 96°
2026-04-15 13:42 50.04351 8.53279 364 ft 3 kts 85°
2026-04-15 13:43 50.04365 8.53360 370 ft 7 kts 70°
2026-04-15 13:43 50.04377 8.53414 373 ft 8 kts 70°
2026-04-15 13:43 50.04398 8.53554 375 ft 16 kts 83°
2026-04-15 13:43 50.04410 8.53735 375 ft 17 kts 84°
2026-04-15 13:44 50.04423 8.53936 375 ft 20 kts 84°
2026-04-15 13:44 50.04438 8.54149 375 ft 15 kts 84°
2026-04-15 13:44 50.04448 8.54307 374 ft 14 kts 84°
2026-04-15 13:44 50.04451 8.54483 369 ft 18 kts 96°
2026-04-15 13:45 50.04405 8.54655 366 ft 19 kts 127°
2026-04-15 13:45 50.04299 8.54780 357 ft 18 kts 156°
2026-04-15 13:45 50.04167 8.54854 356 ft 22 kts 160°
2026-04-15 13:47 50.03813 8.54588 351 ft 0 kts 158°